Location: Lourdes
(43.1000°N, 0.0500°W)
Time: 09:33:24
(UTC+00:00)

CZ-4 R/B - Pass Details

Date: 30 November 2020
Orbit: 532 x 598 km, 97.7° (Epoch: 25 January)

Event Time Altitude Azimuth Distance (km) Brightness Sun altitude
Rises 19:08:44 0° 188° (S) 2,702 5.0 -29.0°
Enters shadow 19:10:20 - 194° (SSW) 2,070 4.4 -29.3°
Exits shadow 19:16:26 22° 311° (NW) 1,253 3.5 -30.4°
Drops below altitude 10° 19:18:16 10° 329° (NNW) 1,874 4.3 -30.7°
Sets 19:20:37 0° 339° (NNW) 2,789 5.1 -31.1°
